Year,Month,Day,Hour,Minute,Value (Times are PST for insolation in W/m^2)
2019,08,11,00,00,0.00
2019,08,11,00,01,0.00
2019,08,11,00,02,0.00
2019,08,11,00,03,0.00
2019,08,11,00,04,0.00
2019,08,11,00,05,0.00
2019,08,11,00,06,0.00
2019,08,11,00,07,0.00
2019,08,11,00,08,0.00
2019,08,11,00,09,0.00
2019,08,11,00,10,0.00
2019,08,11,00,11,0.00
2019,08,11,00,12,0.00
2019,08,11,00,13,0.00
2019,08,11,00,14,0.00
2019,08,11,00,15,0.00
2019,08,11,00,16,0.00
2019,08,11,00,17,0.00
2019,08,11,00,18,0.00
2019,08,11,00,19,0.00
2019,08,11,00,20,0.00
2019,08,11,00,21,0.00
2019,08,11,00,22,0.00
2019,08,11,00,23,0.00
2019,08,11,00,24,0.00
2019,08,11,00,25,0.00
2019,08,11,00,26,0.00
2019,08,11,00,27,0.00
2019,08,11,00,28,0.00
2019,08,11,00,29,0.00
2019,08,11,00,30,0.00
2019,08,11,00,31,0.00
2019,08,11,00,32,0.00
2019,08,11,00,33,0.00
2019,08,11,00,34,0.00
2019,08,11,00,35,0.00
2019,08,11,00,36,0.00
2019,08,11,00,37,0.00
2019,08,11,00,38,0.00
2019,08,11,00,39,0.00
2019,08,11,00,40,0.00
2019,08,11,00,41,0.00
2019,08,11,00,42,0.00
2019,08,11,00,43,0.00
2019,08,11,00,44,0.00
2019,08,11,00,45,0.00
2019,08,11,00,46,0.00
2019,08,11,00,47,0.00
2019,08,11,00,48,0.00
2019,08,11,00,49,0.00
2019,08,11,00,50,0.00
2019,08,11,00,51,0.00
2019,08,11,00,52,0.00
2019,08,11,00,53,0.00
2019,08,11,00,54,0.00
2019,08,11,00,55,0.00
2019,08,11,00,56,0.00
2019,08,11,00,57,0.00
2019,08,11,00,58,0.00
2019,08,11,00,59,0.00
2019,08,11,01,00,0.00
2019,08,11,01,01,0.00
2019,08,11,01,02,0.00
2019,08,11,01,03,0.00
2019,08,11,01,04,0.00
2019,08,11,01,05,0.00
2019,08,11,01,06,0.00
2019,08,11,01,07,0.00
2019,08,11,01,08,0.00
2019,08,11,01,09,0.00
2019,08,11,01,10,0.00
2019,08,11,01,11,0.00
2019,08,11,01,12,0.00
2019,08,11,01,13,0.00
2019,08,11,01,14,0.00
2019,08,11,01,15,0.00
2019,08,11,01,16,0.00
2019,08,11,01,17,0.00
2019,08,11,01,18,0.00
2019,08,11,01,19,0.00
2019,08,11,01,20,0.00
2019,08,11,01,21,0.00
2019,08,11,01,22,0.00
2019,08,11,01,23,0.00
2019,08,11,01,24,0.00
2019,08,11,01,25,0.00
2019,08,11,01,26,0.00
2019,08,11,01,27,0.00
2019,08,11,01,28,0.00
2019,08,11,01,29,0.00
2019,08,11,01,30,0.00
2019,08,11,01,31,0.00
2019,08,11,01,32,0.00
2019,08,11,01,33,0.00
2019,08,11,01,34,0.00
2019,08,11,01,35,0.00
2019,08,11,01,36,0.00
2019,08,11,01,37,0.00
2019,08,11,01,38,0.00
2019,08,11,01,39,0.00
2019,08,11,01,40,0.00
2019,08,11,01,41,0.00
2019,08,11,01,42,0.00
2019,08,11,01,43,0.00
2019,08,11,01,44,0.00
2019,08,11,01,45,0.00
2019,08,11,01,46,0.00
2019,08,11,01,47,0.00
2019,08,11,01,48,0.00
2019,08,11,01,49,0.00
2019,08,11,01,50,0.00
2019,08,11,01,51,0.00
2019,08,11,01,52,0.00
2019,08,11,01,53,0.00
2019,08,11,01,54,0.00
2019,08,11,01,55,0.00
2019,08,11,01,56,0.00
2019,08,11,01,57,0.00
2019,08,11,01,58,0.00
2019,08,11,01,59,0.00
2019,08,11,02,00,0.00
2019,08,11,02,01,0.00
2019,08,11,02,02,0.00
2019,08,11,02,03,0.00
2019,08,11,02,04,0.00
2019,08,11,02,05,0.00
2019,08,11,02,06,0.00
2019,08,11,02,07,0.00
2019,08,11,02,08,0.00
2019,08,11,02,09,0.00
2019,08,11,02,10,0.00
2019,08,11,02,11,0.00
2019,08,11,02,12,0.00
2019,08,11,02,13,0.00
2019,08,11,02,14,0.00
2019,08,11,02,15,0.00
2019,08,11,02,16,0.00
2019,08,11,02,17,0.00
2019,08,11,02,18,0.00
2019,08,11,02,19,0.00
2019,08,11,02,20,0.00
2019,08,11,02,21,0.00
2019,08,11,02,22,0.00
2019,08,11,02,23,0.00
2019,08,11,02,24,0.00
2019,08,11,02,25,0.00
2019,08,11,02,26,0.00
2019,08,11,02,27,0.00
2019,08,11,02,28,0.00
2019,08,11,02,29,0.00
2019,08,11,02,30,0.00
2019,08,11,02,31,0.00
2019,08,11,02,32,0.00
2019,08,11,02,33,0.00
2019,08,11,02,34,0.00
2019,08,11,02,35,0.00
2019,08,11,02,36,0.00
2019,08,11,02,37,0.00
2019,08,11,02,38,0.00
2019,08,11,02,39,0.00
2019,08,11,02,40,0.00
2019,08,11,02,41,0.00
2019,08,11,02,42,0.00
2019,08,11,02,43,0.00
2019,08,11,02,44,0.00
2019,08,11,02,45,0.00
2019,08,11,02,46,0.00
2019,08,11,02,47,0.00
2019,08,11,02,48,0.00
2019,08,11,02,49,0.00
2019,08,11,02,50,0.00
2019,08,11,02,51,0.00
2019,08,11,02,52,0.00
2019,08,11,02,53,0.00
2019,08,11,02,54,0.00
2019,08,11,02,55,0.00
2019,08,11,02,56,0.00
2019,08,11,02,57,0.00
2019,08,11,02,58,0.00
2019,08,11,02,59,0.00
2019,08,11,03,00,0.00
2019,08,11,03,01,0.00
2019,08,11,03,02,0.00
2019,08,11,03,03,0.00
2019,08,11,03,04,0.00
2019,08,11,03,05,0.00
2019,08,11,03,06,0.00
2019,08,11,03,07,0.00
2019,08,11,03,08,0.00
2019,08,11,03,09,0.00
2019,08,11,03,10,0.00
2019,08,11,03,11,0.00
2019,08,11,03,12,0.00
2019,08,11,03,13,0.00
2019,08,11,03,14,0.00
2019,08,11,03,15,0.00
2019,08,11,03,16,0.00
2019,08,11,03,17,0.00
2019,08,11,03,18,0.00
2019,08,11,03,19,0.00
2019,08,11,03,20,0.00
2019,08,11,03,21,0.00
2019,08,11,03,22,0.00
2019,08,11,03,23,0.00
2019,08,11,03,24,0.00
2019,08,11,03,25,0.00
2019,08,11,03,26,0.00
2019,08,11,03,27,0.00
2019,08,11,03,28,0.00
2019,08,11,03,29,0.00
2019,08,11,03,30,0.00
2019,08,11,03,31,0.00
2019,08,11,03,32,0.00
2019,08,11,03,33,0.00
2019,08,11,03,34,0.00
2019,08,11,03,35,0.00
2019,08,11,03,36,0.00
2019,08,11,03,37,0.00
2019,08,11,03,38,0.00
2019,08,11,03,39,0.00
2019,08,11,03,40,0.00
2019,08,11,03,41,0.00
2019,08,11,03,42,0.00
2019,08,11,03,43,0.00
2019,08,11,03,44,0.00
2019,08,11,03,45,0.00
2019,08,11,03,46,0.00
2019,08,11,03,47,0.00
2019,08,11,03,48,0.00
2019,08,11,03,49,0.00
2019,08,11,03,50,0.00
2019,08,11,03,51,0.00
2019,08,11,03,52,0.00
2019,08,11,03,53,0.00
2019,08,11,03,54,0.00
2019,08,11,03,55,0.00
2019,08,11,03,56,0.00
2019,08,11,03,57,0.00
2019,08,11,03,58,0.00
2019,08,11,03,59,0.00
2019,08,11,04,00,0.00
2019,08,11,04,01,0.00
2019,08,11,04,02,0.00
2019,08,11,04,03,0.00
2019,08,11,04,04,0.00
2019,08,11,04,05,0.00
2019,08,11,04,06,0.00
2019,08,11,04,07,0.00
2019,08,11,04,08,0.00
2019,08,11,04,09,0.00
2019,08,11,04,10,0.00
2019,08,11,04,11,0.00
2019,08,11,04,12,0.00
2019,08,11,04,13,0.00
2019,08,11,04,14,0.00
2019,08,11,04,15,0.00
2019,08,11,04,16,0.00
2019,08,11,04,17,0.00
2019,08,11,04,18,0.00
2019,08,11,04,19,0.00
2019,08,11,04,20,0.00
2019,08,11,04,21,0.00
2019,08,11,04,22,0.00
2019,08,11,04,23,0.00
2019,08,11,04,24,0.00
2019,08,11,04,25,0.00
2019,08,11,04,26,0.00
2019,08,11,04,27,0.00
2019,08,11,04,28,0.00
2019,08,11,04,29,0.00
2019,08,11,04,30,0.00
2019,08,11,04,31,0.00
2019,08,11,04,32,0.00
2019,08,11,04,33,0.00
2019,08,11,04,34,0.00
2019,08,11,04,35,0.00
2019,08,11,04,36,0.00
2019,08,11,04,37,0.00
2019,08,11,04,38,0.00
2019,08,11,04,39,0.00
2019,08,11,04,40,0.00
2019,08,11,04,41,0.00
2019,08,11,04,42,0.00
2019,08,11,04,43,0.00
2019,08,11,04,44,0.00
2019,08,11,04,45,0.00
2019,08,11,04,46,0.00
2019,08,11,04,47,0.00
2019,08,11,04,48,0.00
2019,08,11,04,49,0.00
2019,08,11,04,50,0.00
2019,08,11,04,51,0.00
2019,08,11,04,52,0.00
2019,08,11,04,53,0.00
2019,08,11,04,54,0.00
2019,08,11,04,55,0.00
2019,08,11,04,56,0.00
2019,08,11,04,57,0.00
2019,08,11,04,58,0.00
2019,08,11,04,59,0.00
2019,08,11,05,00,0.00
2019,08,11,05,01,0.00
2019,08,11,05,02,0.00
2019,08,11,05,03,0.00
2019,08,11,05,04,0.00
2019,08,11,05,05,0.00
2019,08,11,05,06,0.00
2019,08,11,05,07,0.00
2019,08,11,05,08,0.00
2019,08,11,05,09,0.00
2019,08,11,05,10,0.00
2019,08,11,05,11,0.00
2019,08,11,05,12,0.00
2019,08,11,05,13,0.00
2019,08,11,05,14,0.00
2019,08,11,05,15,0.00
2019,08,11,05,16,0.00
2019,08,11,05,17,0.00
2019,08,11,05,18,0.00
2019,08,11,05,19,0.00
2019,08,11,05,20,0.00
2019,08,11,05,21,0.00
2019,08,11,05,22,0.00
2019,08,11,05,23,0.00
2019,08,11,05,24,0.00
2019,08,11,05,25,0.00
2019,08,11,05,26,0.00
2019,08,11,05,27,0.00
2019,08,11,05,28,0.00
2019,08,11,05,29,0.00
2019,08,11,05,30,0.00
2019,08,11,05,31,0.00
2019,08,11,05,32,0.00
2019,08,11,05,33,0.00
2019,08,11,05,34,0.00
2019,08,11,05,35,0.00
2019,08,11,05,36,0.00
2019,08,11,05,37,0.00
2019,08,11,05,38,0.00
2019,08,11,05,39,0.00
2019,08,11,05,40,0.00
2019,08,11,05,41,0.00
2019,08,11,05,42,0.00
2019,08,11,05,43,0.00
2019,08,11,05,44,0.00
2019,08,11,05,45,0.00
2019,08,11,05,46,0.00
2019,08,11,05,47,0.00
2019,08,11,05,48,0.00
2019,08,11,05,49,0.00
2019,08,11,05,50,0.00
2019,08,11,05,51,0.00
2019,08,11,05,52,0.00
2019,08,11,05,53,0.00
2019,08,11,05,54,0.00
2019,08,11,05,55,0.00
2019,08,11,05,56,0.00
2019,08,11,05,57,0.00
2019,08,11,05,58,0.00
2019,08,11,05,59,0.00
2019,08,11,06,00,0.00
2019,08,11,06,01,0.00
2019,08,11,06,02,0.00
2019,08,11,06,03,0.00
2019,08,11,06,04,0.00
2019,08,11,06,05,0.00
2019,08,11,06,06,0.00
2019,08,11,06,07,0.00
2019,08,11,06,08,0.00
2019,08,11,06,09,0.00
2019,08,11,06,10,0.00
2019,08,11,06,11,0.00
2019,08,11,06,12,0.00
2019,08,11,06,13,0.00
2019,08,11,06,14,0.00
2019,08,11,06,15,0.00
2019,08,11,06,16,0.00
2019,08,11,06,17,0.00
2019,08,11,06,18,0.00
2019,08,11,06,19,0.00
2019,08,11,06,20,0.00
2019,08,11,06,21,0.00
2019,08,11,06,22,0.00
2019,08,11,06,23,0.50
2019,08,11,06,24,5.00
2019,08,11,06,25,5.00
2019,08,11,06,26,5.00
2019,08,11,06,27,5.00
2019,08,11,06,28,6.50
2019,08,11,06,29,7.00
2019,08,11,06,30,7.00
2019,08,11,06,31,7.50
2019,08,11,06,32,9.00
2019,08,11,06,33,10.00
2019,08,11,06,34,11.00
2019,08,11,06,35,11.70
2019,08,11,06,36,12.00
2019,08,11,06,37,14.00
2019,08,11,06,38,14.50
2019,08,11,06,39,16.00
2019,08,11,06,40,17.00
2019,08,11,06,41,18.00
2019,08,11,06,42,18.80
2019,08,11,06,43,19.00
2019,08,11,06,44,20.90
2019,08,11,06,45,21.50
2019,08,11,06,46,23.00
2019,08,11,06,47,24.00
2019,08,11,06,48,25.00
2019,08,11,06,49,25.70
2019,08,11,06,50,26.00
2019,08,11,06,51,28.00
2019,08,11,06,52,28.50
2019,08,11,06,53,30.00
2019,08,11,06,54,31.00
2019,08,11,06,55,32.00
2019,08,11,06,56,34.20
2019,08,11,06,57,35.00
2019,08,11,06,58,36.90
2019,08,11,06,59,37.50
2019,08,11,07,00,39.40
2019,08,11,07,01,41.00
2019,08,11,07,02,43.30
2019,08,11,07,03,44.00
2019,08,11,07,04,45.80
2019,08,11,07,05,47.00
2019,08,11,07,06,47.00
2019,08,11,07,07,47.00
2019,08,11,07,08,48.00
2019,08,11,07,09,47.80
2019,08,11,07,10,47.00
2019,08,11,07,11,46.10
2019,08,11,07,12,43.80
2019,08,11,07,13,41.50
2019,08,11,07,14,40.00
2019,08,11,07,15,39.50
2019,08,11,07,16,39.00
2019,08,11,07,17,39.00
2019,08,11,07,18,39.00
2019,08,11,07,19,39.00
2019,08,11,07,20,39.00
2019,08,11,07,21,39.00
2019,08,11,07,22,39.00
2019,08,11,07,23,37.80
2019,08,11,07,24,37.00
2019,08,11,07,25,37.00
2019,08,11,07,26,35.00
2019,08,11,07,27,35.00
2019,08,11,07,28,34.20
2019,08,11,07,29,33.00
2019,08,11,07,30,33.00
2019,08,11,07,31,32.20
2019,08,11,07,32,32.00
2019,08,11,07,33,29.70
2019,08,11,07,34,28.00
2019,08,11,07,35,27.20
2019,08,11,07,36,26.00
2019,08,11,07,37,25.40
2019,08,11,07,38,25.00
2019,08,11,07,39,23.30
2019,08,11,07,40,23.00
2019,08,11,07,41,23.00
2019,08,11,07,42,23.00
2019,08,11,07,43,23.00
2019,08,11,07,44,24.30
2019,08,11,07,45,25.00
2019,08,11,07,46,25.00
2019,08,11,07,47,25.10
2019,08,11,07,48,26.00
2019,08,11,07,49,26.00
2019,08,11,07,50,27.00
2019,08,11,07,51,28.00
2019,08,11,07,52,28.00
2019,08,11,07,53,28.00
2019,08,11,07,54,30.00
2019,08,11,07,55,30.00
2019,08,11,07,56,30.70
2019,08,11,07,57,32.00
2019,08,11,07,58,32.60
2019,08,11,07,59,33.00
2019,08,11,08,00,34.70
2019,08,11,08,01,37.30
2019,08,11,08,02,39.30
2019,08,11,08,03,40.80
2019,08,11,08,04,43.00
2019,08,11,08,05,45.20
2019,08,11,08,06,48.20
2019,08,11,08,07,50.70
2019,08,11,08,08,53.10
2019,08,11,08,09,54.50
2019,08,11,08,10,56.70
2019,08,11,08,11,59.90
2019,08,11,08,12,62.60
2019,08,11,08,13,65.90
2019,08,11,08,14,69.70
2019,08,11,08,15,74.40
2019,08,11,08,16,78.00
2019,08,11,08,17,82.10
2019,08,11,08,18,85.90
2019,08,11,08,19,89.80
2019,08,11,08,20,92.40
2019,08,11,08,21,94.70
2019,08,11,08,22,95.00
2019,08,11,08,23,95.50
2019,08,11,08,24,97.00
2019,08,11,08,25,97.50
2019,08,11,08,26,98.00
2019,08,11,08,27,98.00
2019,08,11,08,28,98.00
2019,08,11,08,29,100.00
2019,08,11,08,30,100.00
2019,08,11,08,31,100.80
2019,08,11,08,32,102.00
2019,08,11,08,33,102.00
2019,08,11,08,34,102.00
2019,08,11,08,35,100.20
2019,08,11,08,36,99.70
2019,08,11,08,37,98.00
2019,08,11,08,38,98.00
2019,08,11,08,39,97.50
2019,08,11,08,40,97.00
2019,08,11,08,41,97.00
2019,08,11,08,42,95.30
2019,08,11,08,43,92.70
2019,08,11,08,44,90.80
2019,08,11,08,45,89.20
2019,08,11,08,46,88.00
2019,08,11,08,47,88.00
2019,08,11,08,48,88.00
2019,08,11,08,49,88.00
2019,08,11,08,50,90.00
2019,08,11,08,51,90.00
2019,08,11,08,52,90.40
2019,08,11,08,53,92.00
2019,08,11,08,54,94.30
2019,08,11,08,55,96.40
2019,08,11,08,56,97.90
2019,08,11,08,57,100.60
2019,08,11,08,58,104.20
2019,08,11,08,59,105.80
2019,08,11,09,00,108.00
2019,08,11,09,01,110.30
2019,08,11,09,02,112.50
2019,08,11,09,03,115.70
2019,08,11,09,04,120.40
2019,08,11,09,05,123.00
2019,08,11,09,06,123.00
2019,08,11,09,07,127.30
2019,08,11,09,08,133.30
2019,08,11,09,09,134.00
2019,08,11,09,10,134.90
2019,08,11,09,11,137.20
2019,08,11,09,12,139.00
2019,08,11,09,13,140.80
2019,08,11,09,14,145.00
2019,08,11,09,15,147.80
2019,08,11,09,16,150.40
2019,08,11,09,17,152.70
2019,08,11,09,18,153.20
2019,08,11,09,19,155.00
2019,08,11,09,20,155.00
2019,08,11,09,21,155.00
2019,08,11,09,22,155.60
2019,08,11,09,23,156.00
2019,08,11,09,24,157.70
2019,08,11,09,25,160.30
2019,08,11,09,26,162.20
2019,08,11,09,27,163.70
2019,08,11,09,28,166.90
2019,08,11,09,29,170.20
2019,08,11,09,30,173.30
2019,08,11,09,31,177.60
2019,08,11,09,32,178.70
2019,08,11,09,33,183.50
2019,08,11,09,34,185.40
2019,08,11,09,35,187.00
2019,08,11,09,36,189.20
2019,08,11,09,37,191.50
2019,08,11,09,38,192.00
2019,08,11,09,39,193.60
2019,08,11,09,40,198.20
2019,08,11,09,41,203.90
2019,08,11,09,42,210.00
2019,08,11,09,43,216.10
2019,08,11,09,44,223.30
2019,08,11,09,45,229.50
2019,08,11,09,46,241.80
2019,08,11,09,47,252.10
2019,08,11,09,48,263.10
2019,08,11,09,49,257.50
2019,08,11,09,50,256.90
2019,08,11,09,51,258.00
2019,08,11,09,52,267.80
2019,08,11,09,53,301.00
2019,08,11,09,54,299.10
2019,08,11,09,55,302.20
2019,08,11,09,56,302.50
2019,08,11,09,57,290.00
2019,08,11,09,58,309.50
2019,08,11,09,59,383.20
2019,08,11,10,00,329.00
2019,08,11,10,01,312.50
2019,08,11,10,02,298.00
2019,08,11,10,03,313.80
2019,08,11,10,04,291.60
2019,08,11,10,05,262.80
2019,08,11,10,06,283.90
2019,08,11,10,07,246.80
2019,08,11,10,08,236.30
2019,08,11,10,09,232.10
2019,08,11,10,10,228.00
2019,08,11,10,11,223.30
2019,08,11,10,12,218.80
2019,08,11,10,13,214.60
2019,08,11,10,14,214.80
2019,08,11,10,15,219.80
2019,08,11,10,16,216.00
2019,08,11,10,17,217.90
2019,08,11,10,18,223.10
2019,08,11,10,19,238.50
2019,08,11,10,20,262.00
2019,08,11,10,21,266.30
2019,08,11,10,22,261.50
2019,08,11,10,23,261.50
2019,08,11,10,24,269.00
2019,08,11,10,25,293.90
2019,08,11,10,26,292.50
2019,08,11,10,27,293.20
2019,08,11,10,28,290.10
2019,08,11,10,29,276.50
2019,08,11,10,30,262.90
2019,08,11,10,31,235.50
2019,08,11,10,32,217.40
2019,08,11,10,33,208.00
2019,08,11,10,34,198.20
2019,08,11,10,35,189.70
2019,08,11,10,36,188.50
2019,08,11,10,37,193.40
2019,08,11,10,38,219.00
2019,08,11,10,39,257.60
2019,08,11,10,40,269.00
2019,08,11,10,41,259.50
2019,08,11,10,42,258.00
2019,08,11,10,43,258.00
2019,08,11,10,44,370.70
2019,08,11,10,45,553.50
2019,08,11,10,46,524.70
2019,08,11,10,47,518.50
2019,08,11,10,48,487.50
2019,08,11,10,49,441.00
2019,08,11,10,50,500.50
2019,08,11,10,51,658.90
2019,08,11,10,52,626.00
2019,08,11,10,53,649.60
2019,08,11,10,54,709.00
2019,08,11,10,55,689.80
2019,08,11,10,56,692.00
2019,08,11,10,57,686.00
2019,08,11,10,58,686.00
2019,08,11,10,59,674.60
2019,08,11,11,00,635.10
2019,08,11,11,01,619.00
2019,08,11,11,02,669.50
2019,08,11,11,03,683.40
2019,08,11,11,04,678.10
2019,08,11,11,05,671.00
2019,08,11,11,06,668.00
2019,08,11,11,07,671.10
2019,08,11,11,08,674.50
2019,08,11,11,09,687.10
2019,08,11,11,10,596.00
2019,08,11,11,11,596.00
2019,08,11,11,12,596.00
2019,08,11,11,13,596.00
2019,08,11,11,14,596.00
2019,08,11,11,15,542.00
2019,08,11,11,16,524.00
2019,08,11,11,17,707.00
2019,08,11,11,18,707.00
2019,08,11,11,19,721.00
2019,08,11,11,20,736.00
2019,08,11,11,21,721.20
2019,08,11,11,22,671.20
2019,08,11,11,23,656.00
2019,08,11,11,24,658.80
2019,08,11,11,25,682.00
2019,08,11,11,26,680.90
2019,08,11,11,27,677.00
2019,08,11,11,28,673.80
2019,08,11,11,29,674.50
2019,08,11,11,30,678.60
2019,08,11,11,31,680.00
2019,08,11,11,32,687.20
2019,08,11,11,33,691.00
2019,08,11,11,34,691.00
2019,08,11,11,35,691.00
2019,08,11,11,36,692.50
2019,08,11,11,37,700.10
2019,08,11,11,38,712.00
2019,08,11,11,39,711.50
2019,08,11,11,40,706.60
2019,08,11,11,41,703.10
2019,08,11,11,42,709.50
2019,08,11,11,43,718.80
2019,08,11,11,44,727.20
2019,08,11,11,45,729.00
2019,08,11,11,46,733.10
2019,08,11,11,47,747.90
2019,08,11,11,48,754.00
2019,08,11,11,49,419.70
2019,08,11,11,50,300.80
2019,08,11,11,51,322.00
2019,08,11,11,52,848.30
2019,08,11,11,53,875.00
2019,08,11,11,54,873.00
2019,08,11,11,55,874.70
2019,08,11,11,56,884.80
2019,08,11,11,57,894.10
2019,08,11,11,58,901.40
2019,08,11,11,59,910.20
2019,08,11,12,00,903.10
2019,08,11,12,01,896.80
2019,08,11,12,02,900.20
2019,08,11,12,03,912.20
2019,08,11,12,04,888.50
2019,08,11,12,05,881.00
2019,08,11,12,06,881.00
2019,08,11,12,07,881.00
2019,08,11,12,08,881.00
2019,08,11,12,09,881.00
2019,08,11,12,10,881.00
2019,08,11,12,11,881.00
2019,08,11,12,12,881.00
2019,08,11,12,13,881.00
2019,08,11,12,14,881.00
2019,08,11,12,15,764.70
2019,08,11,12,16,585.00
2019,08,11,12,17,585.00
2019,08,11,12,18,585.00
2019,08,11,12,19,585.00
2019,08,11,12,20,585.00
2019,08,11,12,21,585.00
2019,08,11,12,22,585.00
2019,08,11,12,23,585.00
2019,08,11,12,24,585.00
2019,08,11,12,25,585.00
2019,08,11,12,26,585.00
2019,08,11,12,27,585.00
2019,08,11,12,28,673.80
2019,08,11,12,29,936.20
2019,08,11,12,30,930.00
2019,08,11,12,31,930.00
2019,08,11,12,32,930.00
2019,08,11,12,33,930.00
2019,08,11,12,34,917.20
2019,08,11,12,35,928.50
2019,08,11,12,36,939.00
2019,08,11,12,37,939.00
2019,08,11,12,38,939.00
2019,08,11,12,39,939.00
2019,08,11,12,40,939.00
2019,08,11,12,41,939.00
2019,08,11,12,42,868.20
2019,08,11,12,43,656.00
2019,08,11,12,44,788.50
2019,08,11,12,45,952.70
2019,08,11,12,46,1000.10
2019,08,11,12,47,1009.00
2019,08,11,12,48,993.00
2019,08,11,12,49,993.00
2019,08,11,12,50,993.00
2019,08,11,12,51,993.00
2019,08,11,12,52,809.90
2019,08,11,12,53,743.50
2019,08,11,12,54,810.70
2019,08,11,12,55,909.60
2019,08,11,12,56,936.80
2019,08,11,12,57,975.40
2019,08,11,12,58,987.00
2019,08,11,12,59,988.00
2019,08,11,13,00,991.80
2019,08,11,13,01,1005.50
2019,08,11,13,02,1023.50
2019,08,11,13,03,1031.20
2019,08,11,13,04,1044.00
2019,08,11,13,05,1044.00
2019,08,11,13,06,1044.00
2019,08,11,13,07,630.00
2019,08,11,13,08,498.00
2019,08,11,13,09,501.70
2019,08,11,13,10,472.80
2019,08,11,13,11,566.40
2019,08,11,13,12,608.00
2019,08,11,13,13,481.40
2019,08,11,13,14,450.50
2019,08,11,13,15,466.00
2019,08,11,13,16,430.90
2019,08,11,13,17,442.20
2019,08,11,13,18,396.00
2019,08,11,13,19,385.50
2019,08,11,13,20,419.00
2019,08,11,13,21,423.00
2019,08,11,13,22,421.40
2019,08,11,13,23,433.60
2019,08,11,13,24,530.20
2019,08,11,13,25,603.00
2019,08,11,13,26,813.00
2019,08,11,13,27,1053.40
2019,08,11,13,28,1047.20
2019,08,11,13,29,1039.00
2019,08,11,13,30,480.00
2019,08,11,13,31,480.00
2019,08,11,13,32,480.00
2019,08,11,13,33,480.00
2019,08,11,13,34,480.00
2019,08,11,13,35,480.00
2019,08,11,13,36,1007.70
2019,08,11,13,37,1071.00
2019,08,11,13,38,1012.00
2019,08,11,13,39,817.60
2019,08,11,13,40,789.00
2019,08,11,13,41,878.40
2019,08,11,13,42,928.00
2019,08,11,13,43,979.80
2019,08,11,13,44,1053.00
2019,08,11,13,45,1053.00
2019,08,11,13,46,1034.80
2019,08,11,13,47,1048.60
2019,08,11,13,48,1048.30
2019,08,11,13,49,1064.60
2019,08,11,13,50,1058.00
2019,08,11,13,51,610.00
2019,08,11,13,52,610.00
2019,08,11,13,53,605.40
2019,08,11,13,54,577.60
2019,08,11,13,55,509.20
2019,08,11,13,56,483.00
2019,08,11,13,57,483.00
2019,08,11,13,58,483.00
2019,08,11,13,59,483.00
2019,08,11,14,00,599.70
2019,08,11,14,01,765.00
2019,08,11,14,02,765.00
2019,08,11,14,03,965.40
2019,08,11,14,04,1024.50
2019,08,11,14,05,967.10
2019,08,11,14,06,605.00
2019,08,11,14,07,668.70
2019,08,11,14,08,791.60
2019,08,11,14,09,809.00
2019,08,11,14,10,809.00
2019,08,11,14,11,809.00
2019,08,11,14,12,657.00
2019,08,11,14,13,657.00
2019,08,11,14,14,657.00
2019,08,11,14,15,657.00
2019,08,11,14,16,536.10
2019,08,11,14,17,438.70
2019,08,11,14,18,419.20
2019,08,11,14,19,419.50
2019,08,11,14,20,429.80
2019,08,11,14,21,432.00
2019,08,11,14,22,433.00
2019,08,11,14,23,434.00
2019,08,11,14,24,434.00
2019,08,11,14,25,434.00
2019,08,11,14,26,413.30
2019,08,11,14,27,415.00
2019,08,11,14,28,411.50
2019,08,11,14,29,415.30
2019,08,11,14,30,465.80
2019,08,11,14,31,486.00
2019,08,11,14,32,485.00
2019,08,11,14,33,570.00
2019,08,11,14,34,570.00
2019,08,11,14,35,570.00
2019,08,11,14,36,570.00
2019,08,11,14,37,570.00
2019,08,11,14,38,570.00
2019,08,11,14,39,570.00
2019,08,11,14,40,444.10
2019,08,11,14,41,426.50
2019,08,11,14,42,402.40
2019,08,11,14,43,393.00
2019,08,11,14,44,396.00
2019,08,11,14,45,428.60
2019,08,11,14,46,504.20
2019,08,11,14,47,441.00
2019,08,11,14,48,441.00
2019,08,11,14,49,420.50
2019,08,11,14,50,364.00
2019,08,11,14,51,336.70
2019,08,11,14,52,342.30
2019,08,11,14,53,345.00
2019,08,11,14,54,478.10
2019,08,11,14,55,439.80
2019,08,11,14,56,399.30
2019,08,11,14,57,403.00
2019,08,11,14,58,504.20
2019,08,11,14,59,509.90
2019,08,11,15,00,522.40
2019,08,11,15,01,434.00
2019,08,11,15,02,434.00
2019,08,11,15,03,412.80
2019,08,11,15,04,408.00
2019,08,11,15,05,432.40
2019,08,11,15,06,391.80
2019,08,11,15,07,380.00
2019,08,11,15,08,380.00
2019,08,11,15,09,380.00
2019,08,11,15,10,380.00
2019,08,11,15,11,380.00
2019,08,11,15,12,373.20
2019,08,11,15,13,375.80
2019,08,11,15,14,380.70
2019,08,11,15,15,408.20
2019,08,11,15,16,419.00
2019,08,11,15,17,413.00
2019,08,11,15,18,410.50
2019,08,11,15,19,393.70
2019,08,11,15,20,381.90
2019,08,11,15,21,363.90
2019,08,11,15,22,345.00
2019,08,11,15,23,337.20
2019,08,11,15,24,330.10
2019,08,11,15,25,325.00
2019,08,11,15,26,324.20
2019,08,11,15,27,337.10
2019,08,11,15,28,338.30
2019,08,11,15,29,339.90
2019,08,11,15,30,349.80
2019,08,11,15,31,344.90
2019,08,11,15,32,350.00
2019,08,11,15,33,352.60
2019,08,11,15,34,347.70
2019,08,11,15,35,333.50
2019,08,11,15,36,337.10
2019,08,11,15,37,324.20
2019,08,11,15,38,322.00
2019,08,11,15,39,324.50
2019,08,11,15,40,310.60
2019,08,11,15,41,303.60
2019,08,11,15,42,319.00
2019,08,11,15,43,337.30
2019,08,11,15,44,331.00
2019,08,11,15,45,333.10
2019,08,11,15,46,329.50
2019,08,11,15,47,328.00
2019,08,11,15,48,330.90
2019,08,11,15,49,334.40
2019,08,11,15,50,352.00
2019,08,11,15,51,367.40
2019,08,11,15,52,406.00
2019,08,11,15,53,402.20
2019,08,11,15,54,399.00
2019,08,11,15,55,539.60
2019,08,11,15,56,578.00
2019,08,11,15,57,555.00
2019,08,11,15,58,414.50
2019,08,11,15,59,425.00
2019,08,11,16,00,615.30
2019,08,11,16,01,793.00
2019,08,11,16,02,467.60
2019,08,11,16,03,351.50
2019,08,11,16,04,338.90
2019,08,11,16,05,338.20
2019,08,11,16,06,337.90
2019,08,11,16,07,332.90
2019,08,11,16,08,330.00
2019,08,11,16,09,326.20
2019,08,11,16,10,331.20
2019,08,11,16,11,312.70
2019,08,11,16,12,312.00
2019,08,11,16,13,315.00
2019,08,11,16,14,327.40
2019,08,11,16,15,335.80
2019,08,11,16,16,305.90
2019,08,11,16,17,290.80
2019,08,11,16,18,290.30
2019,08,11,16,19,292.80
2019,08,11,16,20,297.70
2019,08,11,16,21,305.10
2019,08,11,16,22,308.60
2019,08,11,16,23,309.00
2019,08,11,16,24,310.80
2019,08,11,16,25,310.70
2019,08,11,16,26,308.80
2019,08,11,16,27,305.70
2019,08,11,16,28,299.40
2019,08,11,16,29,295.70
2019,08,11,16,30,291.20
2019,08,11,16,31,287.30
2019,08,11,16,32,285.00
2019,08,11,16,33,285.00
2019,08,11,16,34,285.00
2019,08,11,16,35,285.00
2019,08,11,16,36,283.70
2019,08,11,16,37,281.40
2019,08,11,16,38,279.20
2019,08,11,16,39,278.30
2019,08,11,16,40,273.20
2019,08,11,16,41,269.30
2019,08,11,16,42,265.90
2019,08,11,16,43,264.30
2019,08,11,16,44,264.80
2019,08,11,16,45,265.00
2019,08,11,16,46,264.00
2019,08,11,16,47,263.40
2019,08,11,16,48,262.00
2019,08,11,16,49,262.00
2019,08,11,16,50,268.60
2019,08,11,16,51,315.20
2019,08,11,16,52,321.10
2019,08,11,16,53,332.00
2019,08,11,16,54,332.00
2019,08,11,16,55,332.00
2019,08,11,16,56,354.50
2019,08,11,16,57,349.10
2019,08,11,16,58,336.00
2019,08,11,16,59,315.40
2019,08,11,17,00,316.70
2019,08,11,17,01,332.80
2019,08,11,17,02,344.50
2019,08,11,17,03,338.50
2019,08,11,17,04,342.50
2019,08,11,17,05,328.30
2019,08,11,17,06,310.50
2019,08,11,17,07,290.50
2019,08,11,17,08,279.20
2019,08,11,17,09,272.90
2019,08,11,17,10,277.20
2019,08,11,17,11,299.70
2019,08,11,17,12,313.60
2019,08,11,17,13,300.70